Temperature
19 18 19 19 19 19 19 18 19 19 19 19 19 19 19 19 19 19 19 19 19 19 19 19 19 19 19 19 19 19 19 19 18 18 18 18 18 17 17 17 17 17 17
19 19 18 18 19 19 19 19 19 19 19 19 19 19 19 19 19 19 19 19 18 19 19 19 19 19 19 19 19 19 19 19 18 18 18 18 18 18 18 17 17 17 17
18 18 18 18 18 18 18 18 18 18 18 18 18 18 18 18 19 19 19 19 18 18 19 19 19 19 19 19 19 19 19 19 19 18 18 18 18 18 18 18 18 18 18
18 18 18 18 18 18 17 17 18 18 18 18 18 18 18 18 18 19 19 19 19 19 19 19 19 19 19 19 19 19 19 19 19 19 19 19 18 18 18 18 18 18 18
18 18 18 17 17 17 17 17 17 17 17 17 17 17 18 18 18 18 18 19 19 19 19 19 19 19 19 19 19 19 19 19 19 19 19 19 19 19 18 18 18 18 18
18 18 18 17 17 17 16 16 16 16 16 16 16 17 17 18 18 18 18 19 19 19 19 19 19 19 19 19 19 19 19 19 19 19 19 19 19 19 19 18 18 18 18
18 18 18 17 17 16 16 16 16 16 16 16 16 17 17 18 18 19 19 19 19 19 19 19 19 19 19 19 19 19 19 19 19 19 19 19 19 19 19 19 18 18 18
18 18 17 17 17 16 16 16 16 15 16 16 16 16 16 17 18 19 19 19 19 19 19 19 19 19 19 19 19 18 18 18 18 18 19 19 19 19 19 19 18 18 18
18 18 18 18 17 17 16 16 16 15 15 15 15 15 16 17 17 18 19 19 19 19 19 19 19 19 19 19 18 18 18 18 18 18 18 18 19 19 19 19 18 18 18
18 18 18 17 17 17 16 16 15 15 15 15 15 15 15 15 15 16 18 19 19 19 19 19 19 19 18 18 18 18 18 18 18 18 18 18 18 18 18 18 18 18 17
18 17 17 17 17 17 16 15 16 16 15 15 15 15 15 15 15 15 16 17 18 19 19 19 19 19 18 18 17 18 17 17 17 17 17 17 17 17 18 18 18 17 17
18 17 17 17 17 17 16 16 15 15 15 15 15 15 14 14 15 15 15 16 17 18 18 18 18 18 18 18 17 17 17 17 17 17 17 17 17 17 17 17 17 17 17
17 17 17 17 17 16 16 16 15 15 15 15 15 14 14 14 15 15 15 15 16 17 17 17 17 17 17 17 17 17 16 16 16 16 16 16 16 16 16 16 16 16 16
17 17 16 16 16 16 15 15 15 15 15 15 14 14 14 14 14 15 15 15 15 16 16 16 16 16 16 16 16 16 16 15 15 15 15 15 15 15 15 15 15 15 16
15 16 15 15 15 15 15 15 15 15 15 14 14 14 14 14 14 14 15 15 15 14 15 15 15 15 15 15 15 15 15 14 14 14 14 14 14 14 14 14 14 15 15
15 15 15 15 15 14 14 14 14 14 14 14 14 14 14 14 14 14 14 15 15 15 14 14 14 14 14 14 14 14 14 14 14 14 13 13 13 13 14 14 14 14 14
14 14 14 14 14 14 14 14 14 14 14 14 14 14 14 14 14 14 14 15 15 15 14 14 14 14 14 13 13 13 13 13 13 13 13 13 13 13 13 13 13 14 14
12 13 13 13 14 14 14 14 14 14 14 14 14 14 14 14 14 14 14 14 15 14 14 14 13 13 13 13 13 13 12 12 12 12 12 12 12 12 12 13 13 13 13
11 12 12 12 13 13 13 14 14 14 14 13 13 13 13 13 14 14 14 14 14 14 14 13 13 13 12 12 12 12 12 12 12 12 12 12 12 12 12 12 12 12 13
10 10 11 11 12 12 13 13 13 13 13 13 13 13 13 13 13 14 14 14 13 13 13 13 12 12 12 12 12 12 11 11 11 11 11 11 11 12 12 12 12 12 12
9 10 10 10 11 11 12 12 13 13 13 13 13 13 13 13 13 13 13 13 13 13 12 12 12 12 11 11 11 11 11 11 11 11 11 11 11 11 11 11 11 11 11
9 9 9 9 10 10 11 12 12 13 13 13 13 13 13 13 13 13 13 12 12 12 12 12 12 12 11 12 11 11 11 11 10 11 11 10 10 10 10 11 10 11 11
9 9 9 9 9 10 10 11 11 12 12 13 12 12 12 12 12 12 12 12 12 12 12 12 12 12 11 11 11 11 11 12 11 11 10 10 10 10 10 10 10 10 10
9 9 9 9 9 9 10 10 11 11 12 12 12 12 12 12 12 12 11 11 11 11 12 12 12 11 11 11 12 12 12 12 12 11 11 10 10 10 10 9 9 9 9
9 8 8 9 9 9 9 10 10 11 11 12 12 12 12 12 12 11 11 11 11 11 11 11 11 11 11 11 12 12 12 12 12 11 11 10 10 10 9 9 9 9 8
8 8 8 8 9 9 9 9 10 10 10 11 11 12 12 12 12 11 11 11 11 11 11 11 11 11 11 11 12 12 12 12 12 11 11 11 10 10 9 9 9 9 8
Wind_Speed
2 3 3 3 5 5 3 3 4 5 5 6 6 7 7 8 10 10 10 19 23 23 23 22 21 21 21 22 22 22 22 23 24 25 26 26 26 25 25 24 24 23 23
1 2 4 4 4 5 5 4 6 6 6 6 8 8 8 8 8 8 8 13 21 24 24 23 22 22 23 23 23 23 23 24 24 25 26 27 27 27 27 26 25 25 24
3 3 4 5 4 5 5 5 6 6 7 8 8 9 9 8 8 8 10 10 14 24 26 25 25 25 25 25 25 24 24 24 25 25 26 27 28 28 27 27 27 26 26
4 2 4 4 2 4 4 5 6 6 6 6 7 7 8 8 10 9 11 12 12 14 21 27 27 26 26 26 26 25 24 24 24 25 25 26 27 28 28 28 27 27 27
1 1 2 3 3 4 4 6 4 3 5 6 7 8 9 9 9 12 13 12 13 14 15 20 28 28 28 27 26 26 25 24 24 24 25 25 26 27 28 28 28 28 27
2 3 3 5 4 4 5 5 6 6 6 7 10 10 7 9 9 11 13 12 10 14 16 15 18 23 28 27 27 27 25 24 24 24 24 25 26 26 27 28 28 28 28
2 2 4 4 5 5 5 6 6 8 7 7 7 8 9 10 10 10 11 10 12 11 10 11 12 13 16 26 27 27 26 25 23 23 23 24 25 26 27 27 28 28 28
1 3 2 3 5 5 6 7 6 5 6 7 6 8 7 8 7 11 10 11 12 10 10 10 7 9 11 12 19 26 25 23 22 21 21 22 23 24 26 27 27 27 27
2 1 2 4 5 5 6 6 6 7 6 6 6 5 5 5 7 7 8 7 8 8 8 6 6 7 10 9 10 17 21 20 20 20 19 19 20 22 24 25 26 26 27
4 4 4 4 4 5 6 7 6 5 6 7 6 6 7 8 7 7 8 8 7 7 7 6 5 4 5 4 5 8 11 12 13 13 13 14 15 18 21 24 25 26 26
6 6 6 5 4 5 6 6 6 6 6 7 7 7 8 7 8 7 9 8 7 5 3 2 2 1 2 3 4 7 9 7 6 5 5 6 9 12 15 19 23 24 25
5 7 7 5 4 5 6 6 6 7 7 7 7 7 7 7 7 6 8 8 7 6 3 2 1 3 3 6 8 10 10 9 8 6 5 3 1 1 3 7 12 15 18
4 4 4 3 4 5 6 6 7 7 8 8 8 7 7 7 8 8 8 8 7 4 1 2 2 3 5 7 9 13 12 12 11 10 9 9 9 9 8 7 5 3 2
5 3 1 3 5 6 7 6 6 8 7 7 9 8 7 7 7 7 7 7 6 5 2 1 2 3 5 7 10 12 11 13 13 13 13 13 13 13 13 13 13 12 11
8 7 5 5 6 7 7 7 6 8 8 7 7 8 7 6 6 7 7 7 6 5 3 2 2 2 4 7 9 11 11 13 15 15 15 15 15 15 15 16 16 15 15
8 9 9 8 8 8 8 8 7 8 7 7 6 7 7 6 6 6 6 7 7 7 3 2 2 3 5 7 10 12 13 16 16 16 16 16 16 16 16 16 17 17 17
8 9 9 9 9 9 9 8 8 9 8 7 7 7 7 7 5 5 5 6 6 6 5 2 2 4 7 9 9 11 12 11 13 17 17 17 17 16 16 16 17 17 17
9 9 9 9 10 11 9 9 9 9 7 7 6 6 6 5 5 4 4 5 5 5 6 7 5 5 7 9 10 10 8 11 12 16 18 18 18 17 17 18 17 17 17
10 10 10 10 10 11 10 10 10 9 7 6 5 4 4 4 4 3 3 2 2 4 6 8 7 5 6 7 9 10 10 8 11 15 17 18 18 19 18 18 18 17 17
10 10 10 10 11 11 11 11 11 9 7 6 4 3 2 1 1 1 1 0 3 6 7 9 9 7 6 7 8 9 8 6 8 10 12 15 18 20 19 18 17 17 17
13 11 10 10 10 11 11 11 10 10 7 6 4 2 2 4 3 2 2 3 4 6 8 9 8 7 6 7 6 6 8 7 7 9 9 8 8 9 11 14 15 16 16
12 11 11 10 10 12 12 12 10 8 6 5 5 5 6 6 7 8 8 7 6 8 8 8 7 8 7 6 6 7 7 8 6 6 7 7 7 8 6 9 11 14 16
11 11 10 10 10 10 12 13 12 9 7 6 6 7 7 8 8 7 8 9 8 8 8 8 9 8 7 7 7 7 8 7 5 7 8 9 8 8 6 9 12 14 15
9 9 10 11 10 11 10 11 12 11 9 7 8 8 8 10 9 9 8 8 7 7 7 8 8 7 6 5 6 7 7 7 6 7 9 8 8 7 7 7 10 11 13
9 9 10 11 10 9 8 9 10 9 9 8 9 10 11 11 13 12 10 10 10 9 11 14 13 12 12 10 7 5 5 6 6 5 5 6 7 7 5 5 8 9 9
9 10 11 11 11 9 7 8 10 8 9 8 8 10 13 13 15 13 10 11 11 10 10 11 10 9 8 8 8 5 2 4 7 5 4 5 7 6 4 4 5 8 7
Wind_Direction
220 288 318 317 306 297 277 254 280 290 287 288 279 268 259 246 247 242 228 192 194 200 204 207 212 218 223 225 225 224 224 224 223 221 220 220 220 221 220 220 219 218 217
164 276 279 274 273 278 292 298 291 289 284 277 277 279 280 275 269 262 247 209 205 209 210 211 214 218 222 224 224 223 223 223 223 222 222 221 221 221 221 221 220 219 218
193 229 256 258 254 263 267 267 268 265 266 265 262 263 266 263 264 267 261 245 225 219 215 214 215 217 220 222 223 222 222 222 222 222 221 221 221 221 222 221 221 220 219
195 214 256 269 295 285 264 260 251 255 261 266 267 263 259 257 255 254 254 248 241 239 223 219 218 218 219 221 222 222 221 221 221 221 221 220 220 221 221 221 221 221 220
230 238 281 293 286 276 280 290 296 293 290 287 281 265 250 248 247 251 247 243 237 233 231 218 217 218 220 221 222 222 222 221 221 221 221 220 220 220 221 221 221 221 220
11 33 321 329 341 319 305 305 315 306 287 276 279 281 270 255 244 241 243 244 239 235 231 228 215 219 220 221 221 222 222 222 221 221 221 220 220 219 219 220 221 221 221
15 19 302 323 310 292 308 316 310 304 299 287 280 279 268 258 248 238 234 236 238 237 231 226 214 206 212 221 223 223 222 223 223 223 223 222 221 220 219 219 220 221 221
160 279 333 329 310 317 302 281 279 282 288 294 295 296 290 281 267 258 235 226 228 231 232 232 218 214 210 201 215 222 225 226 227 227 227 225 224 223 221 220 219 220 221
155 234 291 285 297 295 290 313 308 291 292 295 288 287 295 293 314 299 297 268 236 224 224 221 220 217 220 204 190 206 217 224 228 232 233 231 229 227 225 223 222 221 221
192 203 226 247 265 281 293 293 303 321 301 292 290 276 268 280 291 300 306 304 289 251 229 216 220 205 207 198 160 157 193 210 222 230 238 240 238 234 230 227 226 224 222
198 203 208 217 244 263 272 279 291 283 282 283 288 292 290 288 271 268 284 293 303 305 293 241 187 125 138 145 131 127 141 160 176 200 229 242 244 240 235 230 230 229 226
217 206 198 196 223 251 271 280 276 274 270 273 276 279 281 280 279 271 270 278 282 283 302 356 54 78 82 88 100 107 115 118 118 118 114 107 119 199 226 229 230 232 232
258 221 202 182 229 258 267 267 269 269 272 273 273 270 271 272 275 274 273 277 279 287 311 35 45 84 98 101 106 111 110 108 102 96 93 89 86 82 81 82 91 118 181
302 319 258 227 237 249 263 268 276 274 272 273 280 277 273 270 267 268 267 270 276 271 243 154 61 78 98 108 118 115 109 106 104 99 92 89 87 84 83 82 80 78 77
316 319 306 270 253 251 254 261 265 270 275 275 277 280 278 272 265 263 258 248 242 248 236 181 132 93 111 109 124 116 112 108 103 99 95 92 89 86 83 81 79 77 75
324 316 305 293 279 265 256 254 260 265 272 274 271 272 276 277 274 271 260 249 233 226 220 166 145 138 120 115 114 111 109 106 99 97 93 90 87 86 83 81 80 77 74
318 314 304 291 281 274 265 257 258 264 269 277 284 288 288 285 279 271 264 252 237 215 201 156 127 124 116 116 112 112 112 103 100 98 95 91 87 84 81 79 77 75 74
305 305 305 298 284 275 268 265 263 267 272 277 282 290 294 297 294 285 271 254 234 201 171 150 137 129 117 120 119 116 111 105 103 102 99 95 91 86 82 78 75 73 72
292 294 297 298 295 285 275 269 264 262 264 270 277 285 295 306 306 299 285 261 197 158 145 141 138 129 120 123 118 113 112 113 111 110 101 96 93 89 84 80 77 74 72
279 280 282 287 292 293 282 271 265 260 257 258 262 267 284 332 330 318 310 140 135 133 135 136 135 130 126 126 124 128 127 132 131 123 106 105 99 89 83 80 78 76 74
271 273 275 280 286 289 280 277 268 260 247 238 227 197 114 94 77 81 119 124 133 134 136 136 136 133 136 143 143 146 143 145 134 130 129 128 115 99 88 81 79 79 78
260 261 265 270 275 282 297 303 286 267 250 229 204 161 141 125 107 92 88 91 114 136 142 141 141 144 149 152 153 156 150 147 147 160 147 139 120 102 93 92 94 90 85
264 262 262 264 267 275 283 281 273 263 241 219 196 176 171 148 140 123 108 100 94 106 127 135 140 143 147 160 162 162 163 158 143 158 141 125 115 105 105 117 118 107 98
265 270 269 266 263 269 280 274 264 256 242 216 191 179 161 156 154 146 135 115 95 88 113 119 123 126 125 131 140 142 134 122 115 130 135 127 129 125 124 133 144 127 113
265 267 270 265 260 258 259 256 247 252 238 212 187 171 163 160 156 153 138 121 109 96 92 105 109 110 103 96 101 122 133 132 132 130 129 125 136 134 139 146 164 155 132
266 265 265 264 261 257 250 236 227 243 237 207 178 166 166 158 158 157 145 136 129 126 122 116 111 113 113 101 87 82 100 154 142 129 123 122 148 147 148 159 160 171 171
Height
1523 1524 1524 1525 1525 1526 1526 1526 1526 1526 1526 1527 1527 1528 1528 1528 1527 1528 1527 1527 1528 1530 1531 1531 1531 1532 1534 1535 1537 1538 1540 1542 1544 1546 1548 1550 1552 1554 1556 1558 1560 1562 1564
1520 1521 1521 1521 1521 1522 1522 1522 1522 1521 1521 1521 1521 1522 1523 1523 1523 1522 1522 1522 1522 1524 1526 1527 1527 1528 1529 1531 1533 1534 1536 1538 1540 1542 1544 1546 1548 1550 1552 1554 1556 1558 1560
1517 1518 1518 1518 1518 1518 1517 1517 1517 1517 1516 1516 1516 1516 1516 1516 1516 1516 1516 1516 1517 1518 1519 1521 1522 1523 1524 1526 1528 1530 1531 1533 1535 1537 1539 1541 1543 1545 1547 1549 1551 1553 1555
1514 1515 1515 1515 1515 1514 1514 1514 1513 1513 1512 1511 1511 1511 1510 1510 1509 1509 1509 1509 1511 1512 1514 1514 1515 1517 1519 1520 1522 1524 1526 1528 1530 1532 1534 1536 1538 1541 1543 1545 1547 1549 1551
1512 1512 1512 1513 1512 1512 1512 1511 1511 1509 1508 1507 1506 1506 1505 1504 1503 1503 1502 1503 1504 1505 1507 1508 1509 1511 1513 1514 1516 1518 1520 1522 1525 1527 1529 1531 1533 1535 1538 1540 1542 1544 1546
1510 1509 1509 1509 1509 1508 1508 1508 1507 1506 1505 1504 1503 1502 1500 1499 1498 1497 1497 1497 1498 1499 1501 1502 1503 1504 1507 1509 1511 1513 1515 1517 1519 1521 1523 1526 1528 1530 1532 1534 1537 1539 1541
1507 1506 1506 1505 1505 1504 1504 1504 1503 1502 1501 1500 1499 1497 1495 1494 1493 1492 1492 1492 1493 1494 1495 1496 1497 1498 1500 1502 1505 1507 1509 1511 1514 1516 1518 1520 1522 1524 1527 1529 1531 1533 1535
1503 1503 1503 1502 1501 1501 1500 1500 1499 1498 1496 1497 1496 1494 1491 1490 1488 1488 1487 1486 1487 1489 1490 1491 1492 1493 1493 1496 1497 1501 1504 1506 1508 1510 1512 1514 1516 1518 1520 1522 1525 1527 1529
1500 1500 1499 1498 1498 1497 1496 1496 1496 1494 1493 1492 1492 1493 1490 1486 1485 1483 1482 1482 1482 1483 1483 1486 1486 1487 1487 1490 1491 1494 1497 1500 1502 1504 1506 1508 1510 1512 1514 1516 1518 1520 1523
1496 1496 1496 1495 1494 1494 1493 1492 1493 1491 1490 1488 1488 1488 1488 1486 1485 1480 1478 1478 1478 1478 1479 1481 1483 1483 1482 1483 1485 1487 1490 1494 1496 1498 1500 1502 1503 1504 1506 1508 1511 1513 1516
1493 1493 1493 1492 1491 1491 1490 1489 1488 1487 1486 1484 1483 1483 1482 1481 1481 1480 1476 1475 1475 1475 1475 1476 1477 1479 1479 1479 1478 1481 1485 1488 1491 1493 1494 1495 1496 1497 1499 1501 1503 1506 1508
1491 1490 1489 1488 1488 1487 1486 1486 1484 1483 1482 1480 1479 1478 1477 1477 1476 1476 1474 1473 1472 1473 1472 1473 1472 1474 1475 1475 1476 1478 1481 1484 1486 1487 1488 1489 1490 1491 1492 1494 1496 1498 1501
1488 1488 1486 1485 1484 1484 1483 1482 1481 1479 1478 1476 1475 1473 1472 1472 1472 1471 1471 1469 1469 1469 1469 1469 1470 1471 1471 1472 1473 1475 1477 1479 1481 1482 1484 1485 1485 1486 1487 1488 1490 1492 1495
1482 1482 1481 1480 1480 1479 1479 1478 1476 1475 1474 1472 1470 1469 1468 1466 1466 1466 1466 1465 1464 1464 1465 1465 1466 1467 1468 1469 1470 1472 1474 1476 1477 1479 1480 1481 1482 1482 1483 1484 1486 1487 1490
1476 1476 1476 1475 1475 1474 1474 1473 1472 1471 1470 1468 1466 1464 1463 1461 1460 1460 1460 1460 1461 1460 1460 1461 1462 1463 1465 1466 1468 1470 1472 1473 1475 1477 1478 1479 1479 1480 1481 1482 1483 1484 1486
1469 1469 1469 1469 1469 1469 1469 1468 1467 1466 1465 1463 1462 1460 1458 1456 1455 1454 1454 1454 1454 1455 1456 1457 1458 1460 1462 1464 1466 1468 1470 1472 1474 1476 1477 1478 1479 1480 1480 1481 1482 1483 1484
1463 1463 1462 1462 1462 1463 1463 1463 1462 1461 1460 1458 1457 1455 1453 1452 1450 1449 1448 1448 1448 1450 1451 1453 1455 1457 1459 1462 1464 1467 1469 1471 1473 1475 1477 1478 1479 1480 1481 1481 1481 1482 1483
1456 1456 1455 1455 1455 1456 1456 1456 1456 1456 1455 1454 1452 1451 1449 1447 1446 1444 1443 1443 1443 1444 1446 1448 1452 1455 1457 1460 1463 1466 1469 1471 1473 1475 1477 1479 1480 1481 1481 1481 1482 1482 1483
1448 1448 1448 1448 1447 1448 1448 1449 1450 1450 1449 1449 1447 1446 1445 1443 1442 1440 1439 1439 1439 1440 1443 1445 1449 1453 1456 1460 1463 1466 1469 1471 1474 1476 1478 1480 1481 1481 1482 1482 1483 1483 1483
1441 1440 1440 1440 1440 1440 1441 1442 1443 1443 1443 1443 1443 1442 1441 1440 1439 1438 1437 1436 1437 1438 1440 1444 1448 1452 1455 1459 1462 1466 1469 1472 1474 1477 1479 1481 1482 1483 1484 1484 1485 1485 1485
1435 1434 1433 1432 1432 1433 1434 1435 1436 1436 1437 1438 1438 1437 1437 1437 1436 1435 1435 1435 1436 1437 1439 1442 1447 1451 1455 1458 1462 1466 1469 1473 1476 1479 1480 1482 1484 1485 1486 1486 1487 1487 1487
1428 1428 1427 1426 1425 1426 1426 1427 1428 1429 1430 1432 1433 1433 1433 1434 1434 1434 1434 1434 1435 1437 1439 1442 1446 1449 1454 1458 1462 1465 1469 1472 1477 1481 1481 1483 1485 1486 1487 1488 1489 1489 1489
1422 1422 1421 1420 1419 1419 1419 1419 1420 1422 1424 1426 1428 1429 1430 1431 1432 1432 1433 1434 1436 1438 1440 1442 1445 1449 1453 1457 1461 1466 1470 1473 1476 1479 1482 1484 1487 1488 1489 1490 1491 1491 1491
1416 1415 1415 1414 1413 1413 1413 1412 1413 1415 1417 1420 1422 1424 1426 1428 1430 1431 1433 1435 1436 1439 1441 1444 1447 1451 1455 1459 1463 1467 1470 1474 1477 1481 1483 1484 1487 1489 1491 1491 1492 1493 1492
1408 1408 1408 1407 1407 1406 1406 1406 1407 1408 1410 1413 1416 1419 1422 1425 1427 1430 1433 1435 1437 1440 1443 1446 1449 1453 1457 1461 1464 1468 1471 1474 1477 1481 1483 1484 1487 1489 1491 1492 1493 1494 1494
1401 1401 1400 1400 1400 1400 1400 1400 1401 1401 1404 1407 1411 1414 1418 1422 1425 1429 1432 1435 1437 1441 1444 1448 1451 1455 1458 1462 1465 1467 1470 1473 1476 1480 1483 1484 1486 1488 1491 1493 1493 1494 1494